EW3154 Weather Reports


Display with metric or nautical units.
time (UTC)temp
F
wind
direction
speed
MPH
gust
MPH
rain 1hr
in
rain 24hr
in
rain mn
in
humidity
%
barometer
mb
20181114220044 47 118 0.0 0.0 0.00 0.02 0.02 97 1030.1
20181114214545 47 118 0.0 0.0 0.00 0.02 0.02 97 1030.1
20181114213055 47 118 0.0 0.0 0.00 0.02 0.02 97 1030.0
20181114211517 47 118 0.0 0.0 0.00 0.02 0.02 97 1030.0
20181114210030 47 118 0.0 0.0 0.00 0.02 0.02 97 1030.0
20181114204517 47 118 0.0 0.0 0.00 0.03 0.02 97 1029.8
20181114203056 47 121 0.0 1.0 0.00 0.03 0.02 97 1029.9
20181114201520 48 89 0.0 0.0 0.00 0.03 0.02 98 1029.9
20181114200041 48 214 0.0 0.0 0.00 0.03 0.02 98 1029.7
20181114194515 48 214 0.0 0.0 0.00 0.03 0.02 98 1029.6
20181114193011 48 214 0.0 0.0 0.00 0.03 0.02 98 1029.6
20181114191515 48 214 0.0 0.0 0.00 0.03 0.02 98 1029.5
20181114190020 48 214 0.0 0.0 0.01 0.03 0.02 97 1029.4
20181114184528 48 214 0.0 0.0 0.01 0.03 0.02 97 1029.4
20181114183027 48 214 0.0 0.0 0.01 0.03 0.02 98 1029.3
20181114181508 48 214 0.0 0.0 0.01 0.03 0.02 98 1029.3
20181114180022 48 214 0.0 0.0 0.00 0.02 0.02 97 1029.4
20181114174512 48 214 0.0 0.0 0.00 0.02 0.02 97 1029.3
20181114173015 48 214 0.0 0.0 0.00 0.02 0.02 97 1029.3
20181114171525 48 214 0.0 0.0 0.00 0.02 0.02 97 1029.2
20181114170008 49 214 0.0 0.0 0.00 0.02 0.02 97 1029.1
20181114164506 49 214 0.0 0.0 0.00 0.02 0.02 97 1029.1
20181114163007 49 214 0.0 0.0 0.00 0.02 0.02 97 1029.2
20181114161505 49 214 0.0 0.0 0.00 0.02 0.02 96 1029.0
20181114160005 50 214 0.0 0.0 0.00 0.02 0.02 96 1029.1
20181114154503 50 214 0.0 0.0 0.00 0.02 0.02 95 1029.0
20181114153008 50 214 0.0 3.0 0.00 0.02 0.02 95 1029.0
20181114151648 50 213 0.0 0.0 0.00 0.02 0.02 95 1029.1
20181114150220 50 213 0.0 1.0 0.00 0.02 0.02 94 1029.2
20181114144656 51 209 0.0 0.0 0.00 0.02 0.02 94 1029.4
20181114143133 51 152 0.0 0.0 0.00 0.02 0.02 95 1029.4
20181114141707 51 152 0.0 0.0 0.00 0.02 0.02 94 1029.4
20181114140150 51 152 0.0 0.0 0.00 0.02 0.02 93 1029.4
20181114134701 51 152 0.0 0.0 0.00 0.02 0.02 92 1029.6
20181114133231 51 152 0.0 0.0 0.00 0.02 0.02 92 1029.6
20181114131617 51 152 0.0 0.0 0.00 0.02 0.02 93 1029.7
20181114130057 51 152 0.0 0.0 0.00 0.02 0.02 94 1029.9
20181114124707 50 152 0.0 0.0 0.00 0.03 0.02 95 1030.0
20181114123215 50 152 0.0 1.0 0.01 0.03 0.02 96 1030.1
20181114121640 50 152 0.0 0.0 0.01 0.03 0.02 98 1030.3
20181114120118 49 152 0.0 0.0 0.01 0.03 0.02 98 1030.5
20181114114633 49 152 0.0 0.0 0.01 0.03 0.02 98 1030.6
20181114113100 49 152 0.0 0.0 0.00 0.02 0.01 98 1031.0
20181114111551 49 152 0.0 0.0 0.00 0.02 0.01 98 1031.2
20181114110105 48 152 0.0 1.0 0.00 0.02 0.01 98 1031.4
20181114104600 48 66 0.0 2.0 0.00 0.02 0.01 98 1031.6
20181114103109 48 132 0.0 2.0 0.00 0.02 0.01 98 1031.7
20181114101606 48 124 0.0 3.0 0.00 0.02 0.01 98 1031.9
20181114100055 48 61 0.0 2.0 0.00 0.02 0.01 98 1032.0
20181114094618 48 61 0.0 0.0 0.00 0.02 0.01 98 1032.1
20181114093104 48 128 0.0 0.0 0.00 0.02 0.01 98 1032.1
20181114091600 48 128 0.0 3.0 0.00 0.02 0.01 98 1032.2
20181114090048 48 111 0.0 0.0 0.00 0.02 0.01 99 1032.1
20181114084556 48 40 0.0 0.0 0.00 0.02 0.01 99 1032.0
20181114083035 48 119 0.0 0.0 0.00 0.02 0.01 99 1032.0
20181114081531 48 119 0.0 0.0 0.00 0.02 0.01 99 1031.9
20181114080051 48 119 0.0 0.0 0.00 0.02 0.01 99 1032.0
20181114074548 48 119 0.0 0.0 0.00 0.02 0.01 99 1031.9
20181114073028 47 119 0.0 0.0 0.00 0.02 0.01 99 1031.9
20181114071544 47 119 0.0 2.0 0.00 0.02 0.01 98 1031.8
20181114070016 47 119 0.0 0.0 0.00 0.02 0.01 98 1031.7
20181114064542 47 119 0.0 0.0 0.00 0.02 0.01 98 1031.5
20181114063010 46 282 0.0 2.0 0.00 0.02 0.01 99 1031.3
20181114061510 46 282 0.0 0.0 0.00 0.02 0.01 99 1031.1
20181114060031 46 282 0.0 2.0 0.00 0.02 0.01 99 1031.0
20181114054508 46 282 0.0 0.0 0.00 0.02 0.01 98 1030.8
20181114053152 46 282 0.0 0.0 0.01 0.02 0.01 98 1030.9
20181114051715 46 282 0.0 0.0 0.01 0.02 0.01 99 1030.9
20181114050215 46 282 0.0 0.0 0.01 0.02 0.01 99 1030.6
20181114044651 45 282 0.0 0.0 0.01 0.03 0.01 98 1030.5
20181114043142 45 282 0.0 0.0 0.00 0.02 0.00 99 1030.5
20181114040239 44 282 0.0 1.0 0.00 0.02 0.00 98 1030.3
20181114034647 44 282 0.0 0.0 0.00 0.02 0.00 99 1030.1
20181114033127 44 282 0.0 0.0 0.00 0.02 0.00 98 1030.0
20181114031736 43 282 0.0 0.0 0.00 0.02 0.00 98 1029.9
20181114030141 43 282 0.0 1.0 0.00 0.02 0.00 99 1030.0
20181114024608 42 282 0.0 0.0 0.00 0.02 0.00 98 1030.2
20181114023114 41 282 0.0 0.0 0.00 0.02 0.00 98 1030.1
20181114021617 41 282 0.0 0.0 0.00 0.02 0.00 98 1030.1
20181114020134 41 282 0.0 0.0 0.00 0.02 0.00 98 1030.1
20181114014624 41 282 0.0 0.0 0.00 0.02 0.00 98 1029.9
20181114013130 42 282 0.0 0.0 0.00 0.02 0.00 98 1030.1
20181114011554 40 282 0.0 1.0 0.00 0.02 0.00 98 1030.1
20181114010140 41 282 0.0 0.0 0.00 0.02 0.00 98 1030.1
20181114004634 41 282 0.0 0.0 0.00 0.02 0.00 98 1030.1
20181114003138 41 282 0.0 0.0 0.00 0.02 0.00 98 1030.0
20181114001614 41 282 0.0 0.0 0.00 0.02 0.00 98 1029.8
20181114000112 42 282 0.0 0.0 0.00 0.02 0.00 98 1029.7
20181113234611 42 282 0.0 0.0 0.00 0.02 0.00 98 1029.6
20181113233111 42 282 0.0 0.0 0.00 0.02 0.00 98 1029.6
20181113231600 42 282 0.0 0.0 0.00 0.02 0.00 98 1029.4
20181113230043 42 282 0.0 0.0 0.00 0.02 0.00 98 1029.4
20181113224555 43 282 0.0 0.0 0.00 0.02 0.02 99 1029.3
20181113223029 43 282 0.0 0.0 0.00 0.02 0.02 98 1029.2
20181113221604 43 282 0.0 0.0 0.00 0.02 0.02 98 1029.0